Location: 10033 Water Well
(34.0865°N, 106.8959°W)
Time: 21:46:30
(UTC+00:00)

Meteor 2-19 Rocket - Pass Details

Date: 13 January 2026
Orbit: 935 x 959 km, 82.5° (Epoch: 10 February)

Event Time Altitude Azimuth Distance (km) Brightness Sun altitude
Rises 02:20:10 0° 175° (S) 3,622 7.6 -24.7°
Reaches altitude 10° 02:22:41 10° 172° (S) 2,678 6.8 -25.2°
Enters shadow 02:28:07 59° 122° (ESE) 1,090 4.4 -26.3°
